Waarnemingen

Advertentie
Mijn weer
Greifswalder Oie, Duitsland (10097): temperatuur & dauwpunt: 05.12.2018 17:00:00 - 11.12.2018 17:00:00 (CET)Greifswalder Oie, Duitsland (10097): temperatuur 5cm & temperatuur -5cm: 05.12.2018 17:00:00 - 11.12.2018 17:00:00 (CET)Greifswalder Oie, Duitsland (10097): temperatuur -20cm & temperatuur -100cm: 05.12.2018 17:00:00 - 11.12.2018 17:00:00 (CET)Greifswalder Oie, Duitsland (10097): water temperatuur: 05.12.2018 17:00:00 - 11.12.2018 17:00:00 (CET)Greifswalder Oie, Duitsland (10097): windsnelheid & windstoten: 05.12.2018 17:00:00 - 11.12.2018 17:00:00 (CET)Greifswalder Oie, Duitsland (10097): windrichting: 05.12.2018 17:00:00 - 11.12.2018 17:00:00 (CET)Greifswalder Oie, Duitsland (10097): luchtdruk: 05.12.2018 17:00:00 - 11.12.2018 17:00:00 (CET)Greifswalder Oie, Duitsland (10097): zicht: 05.12.2018 17:00:00 - 11.12.2018 17:00:00 (CET)Greifswalder Oie, Duitsland (10097): Zonneschijnduur: 05.12.2018 17:00:00 - 11.12.2018 17:00:00 (CET)Greifswalder Oie, Duitsland (10097): neerslag: 05.12.2018 17:00:00 - 11.12.2018 17:00:00 (CET)
Datum & Tijd tt [°C] td [°C] tt 5cm [°C] tt -5cm [°C] tt -20cm [°C] tt -100cm [°C] tw [°C] ff [km/u] ff [kn] fx [km/u] fx [kn] dd ppp [hPa] vv [km] sd [min] rr [mm]
11.12.2018 17:00:00 5,3 1,6 4,2 3,8 4,8 7,7 5,2 32 17 49 26 NNO 1015,7 70 0 0,0
11.12.2018 16:00:00 5,3 1,6 4,4 4,1 4,8 7,7 5,2 32 17 51 28 N 1015,0 70 0 0,0
11.12.2018 15:00:00 5,1 2,9 4,8 4,3 4,7 7,7 5,4 40 21 52 28 N 1014,2 56 0 0,0
11.12.2018 14:00:00 5,1 2,9 4,7 4,3 4,6 7,7 5,4 36 19 51 28 N 1013,7 70 0 0,0
11.12.2018 13:00:00 4,9 2,9 4,4 4,2 4,6 7,7 5,4 35 19 48 26 N 1013,0 22 0 0,0
11.12.2018 12:00:00 4,9 2,5 4,6 4,0 4,5 7,7 5,3 38 21 49 27 N 1012,6 59 0 0,0
11.12.2018 11:00:00 4,8 2,2 4,1 3,7 4,5 7,7 5,2 37 20 50 27 N 1012,3 20 0 0,0
11.12.2018 10:00:00 4,4 2,2 3,9 3,1 4,5 7,7 5,1 29 15 51 27 N 1011,7 70 12 0,0
11.12.2018 09:00:00 4,1 -0,5 3,0 2,6 4,6 7,7 5,1 36 20 52 28 N 1011,2 70 2 0,0
11.12.2018 08:00:00 3,7 0,3 2,3 2,9 4,8 7,7 5,2 40 22 57 31 N 1010,2 70 0 0,0
11.12.2018 07:00:00 3,7 0,9 3,0 3,4 4,8 7,7 5,2 45 24 58 32 N 1009,2 70 0 0,0
11.12.2018 06:00:00 3,7 1,1 2,8 3,6 4,9 7,7 5,2 46 25 62 34 N 1008,1 70 0 0,1
11.12.2018 05:00:00 4,5 1,9 3,8 3,8 4,9 7,7 5,2 40 22 64 35 N 1007,1 70 0 0,3
11.12.2018 04:00:00 4,4 2,0 3,7 3,9 5,0 7,7 5,2 45 25 61 33 N 1006,2 45 0 0,0
11.12.2018 03:00:00 4,3 2,8 3,6 4,0 5,0 7,7 5,4 48 26 68 37 NNW 1005,4 43 0 1,3
11.12.2018 02:00:00 3,9 2,9 3,5 4,1 5,0 7,7 5,4 42 23 61 33 NW 1004,9 10 0 1,8
11.12.2018 01:00:00 5,0 2,7 4,4 4,2 5,0 7,7 5,3 48 26 76 41 NW 1004,7 22 0 0,1
11.12.2018 00:00:00 5,3 2,8 4,8 4,3 5,0 7,7 4,9 49 27 56 31 W 1004,3 26 0 0,0
10.12.2018 23:00:00 5,2 2,8 5,0 4,2 5,0 7,7 4,4 44 24 54 29 W 1004,4 36 0 0,0
10.12.2018 22:00:00 5,2 2,7 4,6 4,2 5,0 7,7 4,7 42 23 51 27 W 1004,6 34 0 0,0
10.12.2018 21:00:00 5,6 2,2 5,3 4,1 5,0 7,7 4,7 38 20 46 25 W 1004,7 49 0 0,0
10.12.2018 20:00:00 5,5 2,1 5,2 4,0 5,0 7,7 4,8 38 20 46 25 WNW 1004,7 50 0 0,0
10.12.2018 19:00:00 5,2 2,4 4,6 3,8 5,0 7,8 4,7 32 17 42 23 W 1004,7 45 0 0,0
10.12.2018 18:00:00 5,1 2,6 4,2 3,8 5,1 7,8 5,3 39 21 53 28 W 1004,4 41 0 1,3
10.12.2018 17:00:00 4,9 2,2 4,5 4,0 5,2 7,8 5,1 33 18 56 30 W 1004,1 29 0 0,0
10.12.2018 16:00:00 5,4 1,9 5,0 4,1 5,2 7,8 5,1 46 25 67 36 W 1004,0 48 0 0,0
10.12.2018 15:00:00 5,6 2,2 5,1 4,3 5,2 7,8 5,1 41 22 62 34 W 1003,8 33 0 0,0
10.12.2018 14:00:00 5,7 2,0 5,3 4,6 5,2 7,8 5,0 45 24 65 35 W 1003,8 37 9 0,0
10.12.2018 13:00:00 5,8 2,0 6,2 4,9 5,2 7,8 4,9 50 27 69 38 W 1003,7 16 29 0,0
10.12.2018 12:00:00 5,5 2,1 5,1 4,5 5,2 7,8 4,9 49 27 79 43 W 1003,6 21 8 0,1
10.12.2018 11:00:00 4,9 2,8 4,2 4,3 5,2 7,8 4,8 40 21 73 39 WNW 1003,5 12 4 0,1
10.12.2018 10:00:00 5,6 1,9 5,2 4,2 5,2 7,8 4,7 53 29 68 37 W 1003,0 24 0 0,0
10.12.2018 09:00:00 5,6 1,8 5,2 4,2 5,2 7,8 4,6 53 29 64 35 W 1002,6 36 0 0,0
10.12.2018 08:00:00 5,6 2,0 5,2 4,1 5,2 7,7 4,7 46 25 59 32 W 1002,0 31 0 0,0
10.12.2018 07:00:00 5,5 1,6 4,9 3,9 5,3 7,7 4,7 40 22 61 33 WNW 1001,5 37 0 0,0
10.12.2018 06:00:00 5,3 1,2 4,8 3,8 5,4 7,7 4,7 52 28 76 41 NW 1000,7 45 0 0,0
10.12.2018 05:00:00 5,2 1,4 4,7 4,1 5,4 7,7 4,5 45 25 60 32 WNW 1000,3 42 0 0,1
10.12.2018 04:00:00 5,4 2,0 4,9 4,2 5,5 7,7 4,4 45 25 59 32 WNW 999,6 36 0 0,1
10.12.2018 03:00:00 5,5 3,4 4,8 4,2 5,6 7,7 4,4 40 22 53 28 WNW 999,0 43 0 0,0
10.12.2018 02:00:00 5,2 2,5 4,4 4,0 5,7 7,7 4,4 36 20 49 26 W 998,4 70 0 0,0
10.12.2018 01:00:00 5,0 1,6 4,4 4,1 5,8 7,7 4,4 43 23 57 31 WNW 997,9 70 0 0,0
10.12.2018 00:00:00 5,1 2,2 4,6 4,4 6,0 7,7 4,5 45 25 65 35 NW 996,9 57 0 0,0
09.12.2018 23:00:00 5,3 1,5 4,8 4,9 6,0 7,7 4,5 58 31 74 40 NW 995,2 70 0 0,0
09.12.2018 22:00:00 5,7 4,1 5,2 5,5 6,1 7,7 4,7 56 30 69 38 NW 993,6 65 0 0,1
09.12.2018 21:00:00 6,1 4,5 5,9 5,5 6,1 7,7 5,1 40 21 49 27 WNW 992,0 40 0 0,4
09.12.2018 20:00:00 6,0 4,3 5,6 5,5 6,1 7,7 4,8 34 19 43 23 W 990,9 39 0 0,0
09.12.2018 19:00:00 6,0 4,6 5,6 5,5 6,1 7,7 4,9 33 18 40 22 W 990,0 48 0 0,1
09.12.2018 18:00:00 5,9 4,9 5,5 5,7 6,2 7,7 4,8 38 20 49 27 WZW 989,5 10 0 0,5
09.12.2018 17:00:00 6,3 4,8 5,6 5,6 6,2 7,7 4,8 29 16 35 19 WZW 989,2 47 0 0,2
09.12.2018 16:00:00 5,8 4,7 5,3 5,6 6,2 7,7 4,8 26 14 31 17 WZW 988,8 67 0 0,0
09.12.2018 15:00:00 5,9 4,9 5,6 6,1 6,2 7,7 4,9 26 14 36 19 W 988,3 40 8 0,1
09.12.2018 14:00:00 6,0 4,7 6,1 6,4 6,1 7,7 4,9 32 17 45 24 WZW 987,5 47 6 0,0
09.12.2018 13:00:00 6,2 4,6 6,2 6,4 6,1 7,7 4,9 34 19 45 24 WZW 986,9 44 3 0,0
09.12.2018 12:00:00 6,2 4,5 6,3 6,0 6,0 7,7 4,9 37 20 43 23 WZW 986,9 45 0 0,0
09.12.2018 11:00:00 6,0 4,7 6,0 5,9 6,0 7,7 4,8 36 20 43 23 WZW 986,4 31 0 0,0
09.12.2018 10:00:00 5,8 4,9 5,8 5,6 5,9 7,7 4,8 28 15 35 19 WZW 985,9 24 0 0,0
09.12.2018 09:00:00 5,6 4,8 5,4 5,5 5,9 7,7 4,7 29 15 38 21 W 985,0 26 0 0,1
09.12.2018 08:00:00 5,7 5,1 5,5 5,5 5,9 7,7 4,7 32 17 40 22 W 984,0 9 0 0,3
09.12.2018 07:00:00 5,9 5,2 5,7 5,6 5,9 7,7 4,9 23 13 31 17 W 983,2 28 0 0,3
09.12.2018 06:00:00 6,1 5,6 5,9 5,6 5,9 7,7 4,7 16 8 19 11 WZW 982,9 3,1 0 2,2
09.12.2018 05:00:00 6,0 5,6 5,7 5,4 5,9 7,7 4,9 13 7 33 18 Z 983,3 5 0 4,0
09.12.2018 04:00:00 5,5 5,1 5,3 5,3 5,9 7,7 4,8 13 7 27 14 ZZO 984,4 7 0 3,7
09.12.2018 03:00:00 5,7 4,6 5,2 5,2 6,0 7,7 4,8 29 15 52 28 ZZW 985,9 9 0 1,5
09.12.2018 02:00:00 6,5 3,4 6,1 5,1 6,0 7,7 4,7 37 20 50 27 ZZW 986,8 38 0 0,0
09.12.2018 01:00:00 7,0 3,5 6,2 5,1 6,1 7,7 4,8 42 23 60 33 ZW 988,0 43 0 0,0
09.12.2018 00:00:00 7,0 3,5 6,2 5,4 6,1 7,7 4,9 46 25 67 36 ZW 988,8 49 0 0,0
08.12.2018 23:00:00 7,3 4,0 6,9 5,7 6,2 7,6 5,0 54 29 69 37 ZW 989,6 56 0 0,0
08.12.2018 22:00:00 7,2 4,3 6,5 5,7 6,2 7,6 5,0 53 29 68 37 ZW 989,8 57 0 0,0
08.12.2018 21:00:00 7,4 4,3 6,8 5,9 6,2 7,6 5,3 51 28 68 37 ZW 990,2 66 0 0,0
08.12.2018 20:00:00 7,5 4,6 7,2 5,9 6,1 7,6 5,7 49 26 63 34 ZW 990,5 62 0 0,0
08.12.2018 19:00:00 7,1 4,8 6,7 5,8 6,1 7,6 5,2 47 25 68 37 ZW 990,8 49 0 0,0
08.12.2018 18:00:00 7,0 4,4 6,8 5,7 6,1 7,6 5,0 52 28 64 35 ZW 991,3 70 0 0,0
08.12.2018 17:00:00 6,9 4,2 6,5 5,7 6,1 7,6 5,0 47 25 61 33 ZW 991,9 67 0 0,0
08.12.2018 16:00:00 6,9 4,3 6,5 5,7 6,1 7,6 5,0 50 27 65 35 ZZW 992,4 29 0 0,0
08.12.2018 15:00:00 6,6 4,3 6,3 5,7 6,1 7,6 5,0 50 27 67 36 ZZW 992,8 49 0 0,0
08.12.2018 14:00:00 6,4 3,8 6,3 5,7 6,1 7,6 5,0 48 26 65 35 ZZW 993,4 32 0 0,0
08.12.2018 13:00:00 6,4 3,3 6,2 5,6 6,1 7,6 4,9 50 27 68 37 ZZW 993,9 39 0 0,0
08.12.2018 12:00:00 6,5 3,4 5,6 5,4 6,1 7,5 4,8 49 27 63 34 ZW 994,4 27 0 0,0
08.12.2018 11:00:00 5,6 3,5 4,9 5,2 6,2 7,5 4,8 41 22 58 32 ZZW 995,2 31 0 0,7
08.12.2018 10:00:00 6,1 2,9 5,8 5,1 6,3 7,5 4,7 41 22 55 30 ZW 996,0 45 4 0,0
08.12.2018 09:00:00 5,9 2,6 5,1 4,7 6,4 7,5 4,7 44 24 56 31 ZW 996,3 30 3 0,0
08.12.2018 08:00:00 5,7 3,1 4,7 5,0 6,6 7,5 4,8 42 23 55 30 ZW 997,0 36 0 0,0
08.12.2018 07:00:00 6,1 3,1 5,7 5,5 6,7 7,5 5,0 47 26 61 33 WZW 996,3 35 0 0,0
08.12.2018 06:00:00 6,2 3,7 5,5 5,7 6,9 7,5 5,2 45 25 61 33 WZW 995,8 30 0 0,0
08.12.2018 05:00:00 6,4 4,4 5,8 6,0 7,0 7,5 5,2 47 25 57 31 WZW 995,1 38 0 0,0
08.12.2018 04:00:00 6,2 4,0 5,7 6,2 7,1 7,5 5,2 42 23 57 31 W 994,7 40 0 0,1
08.12.2018 03:00:00 6,6 4,1 6,1 6,5 7,3 7,5 5,2 49 27 70 38 W 993,6 40 0 0,5
08.12.2018 02:00:00 6,8 5,6 6,4 7,4 7,3 7,5 5,3 46 25 67 36 W 992,4 12 0 0,4
08.12.2018 01:00:00 8,6 7,6 8,0 7,7 7,3 7,5 5,3 35 19 42 23 ZZW 991,4 36 0 0,2
08.12.2018 00:00:00 8,6 7,7 8,4 7,8 7,2 7,5 5,3 32 18 37 20 ZZW 991,8 34 0 0,6
07.12.2018 23:00:00 8,4 8,0 8,2 7,8 7,2 7,4 5,3 29 16 35 19 ZZW 992,4 8 0 0,5
07.12.2018 22:00:00 8,4 8,1 8,2 7,8 7,2 7,4 5,2 28 15 33 18 ZZW 993,1 14 0 0,5
07.12.2018 21:00:00 8,4 8,2 8,3 7,9 7,1 7,4 5,3 25 14 32 17 ZZW 994,0 4,2 0 0,2
07.12.2018 20:00:00 8,5 8,3 8,4 7,8 7,1 7,4 5,3 27 15 34 18 ZZW 994,9 14 0 0,2
07.12.2018 19:00:00 8,3 8,1 8,3 7,8 7,0 7,4 5,3 29 16 33 18 ZZW 996,1 2,9 0 0,0
07.12.2018 18:00:00 8,4 8,2 8,3 7,8 7,0 7,4 5,5 29 15 32 18 ZZW 996,9 16 0 0,4
07.12.2018 17:00:00 8,5 8,3 8,4 7,8 6,9 7,4 5,5 28 15 33 18 ZZW 998,0 6 0 1,0
07.12.2018 16:00:00 8,8 8,5 8,6 7,9 6,8 7,4 5,6 26 14 31 17 ZZW 998,7 25 0 0,0
07.12.2018 15:00:00 8,6 8,4 8,5 8,1 6,7 7,4 5,5 27 14 29 16 ZZW 999,8 15 0 0,4
07.12.2018 14:00:00 8,5 8,2 8,7 8,2 6,5 7,4 5,2 24 13 29 16 ZZW 1001,2 4,9 0 0,0
07.12.2018 13:00:00 8,4 8,2 8,7 7,9 6,4 7,4 5,2 21 12 29 15 ZW 1002,1 9 0 0,0
07.12.2018 12:00:00 8,0 7,8 8,2 7,5 6,2 7,4 5,0 24 13 26 14 ZW 1003,0 2,8 0 0,0
07.12.2018 11:00:00 7,6 7,5 7,8 7,2 6,1 7,4 5,0 24 13 27 15 ZW 1003,9 6 0 0,0
07.12.2018 10:00:00 7,6 7,6 7,7 7,0 6,0 7,4 4,9 23 12 27 15 ZW 1004,4 3,7 0 0,1
07.12.2018 09:00:00 7,8 7,7 7,8 6,8 5,9 7,5 4,9 23 13 31 17 WZW 1004,9 0,5 0 0,1
07.12.2018 08:00:00 7,7 7,6 7,7 6,8 5,8 7,5 4,9 27 15 36 20 WZW 1004,9 0,6 0 0,1
07.12.2018 07:00:00 7,4 7,2 7,4 6,7 5,7 7,5 4,9 27 14 38 20 WZW 1004,9 0,3 0 0,1
07.12.2018 06:00:00 7,9 7,5 7,7 6,7 5,5 7,5 4,9 33 18 40 22 WZW 1005,1 3,5 0 0,0
07.12.2018 05:00:00 8,2 7,8 8,0 6,7 5,4 7,5 4,8 37 20 41 22 ZW 1004,9 9 0 0,0
07.12.2018 04:00:00 7,9 7,6 7,8 6,5 5,2 7,5 4,8 31 17 36 20 ZZW 1005,7 2,7 0 0,4
07.12.2018 03:00:00 7,9 7,6 7,7 6,2 5,0 7,5 4,7 29 16 35 19 ZW 1006,8 2,5 0 0,2
07.12.2018 02:00:00 7,5 7,2 7,4 6,0 4,8 7,5 4,5 28 15 35 19 ZZW 1007,3 2,7 0 1,4
07.12.2018 01:00:00 7,3 7,0 7,1 5,6 4,7 7,5 4,5 24 13 31 17 ZZW 1008,4 3,0 0 0,0
07.12.2018 00:00:00 6,9 6,6 6,8 5,3 4,5 7,5 4,4 29 15 33 18 ZZW 1008,8 2,7 0 0,0
06.12.2018 23:00:00 6,4 6,0 6,2 5,0 4,3 7,5 4,3 25 14 33 18 ZZW 1009,4 3,2 0 0,0
06.12.2018 22:00:00 6,1 5,6 5,9 4,6 4,2 7,5 4,2 28 15 33 18 ZZW 1010,0 4,5 0 0,0
06.12.2018 21:00:00 5,8 5,3 5,6 4,3 4,1 7,5 4,2 26 14 31 17 ZZW 1010,6 8 0 0,0
06.12.2018 20:00:00 4,9 4,5 4,7 3,9 4,0 7,5 4,1 27 14 31 17 ZZW 1011,1 4,3 0 0,1
06.12.2018 19:00:00 4,3 3,7 4,1 3,6 3,9 7,5 3,9 26 14 33 18 ZZW 1011,8 1,9 0 0,1
06.12.2018 18:00:00 4,4 2,7 3,8 3,4 3,9 7,6 3,8 27 15 35 19 ZZW 1012,2 7 0 0,0
06.12.2018 17:00:00 4,2 1,7 3,7 3,2 3,8 7,6 3,7 23 13 33 18 ZZW 1012,3 12 0 0,0
06.12.2018 16:00:00 4,0 1,3 3,8 3,1 3,8 7,6 3,7 25 13 34 18 ZZW 1012,9 25 0 0,0
06.12.2018 15:00:00 3,6 0,8 3,5 3,1 3,7 7,6 3,6 22 12 36 19 Z 1012,8 27 0 0,0
06.12.2018 14:00:00 3,4 0,6 3,4 3,2 3,7 7,6 3,6 19 10 35 19 Z 1013,4 28 0 0,0
06.12.2018 13:00:00 3,6 0,6 3,6 3,1 3,6 7,6 3,5 22 12 37 20 Z 1014,0 29 0 0,0
06.12.2018 12:00:00 3,2 0,6 2,7 2,9 3,5 7,6 3,5 24 13 41 22 Z 1015,1 25 0 0,0
06.12.2018 11:00:00 3,1 0,3 2,5 2,8 3,5 7,6 3,4 23 12 38 21 Z 1015,9 16 0 0,0
06.12.2018 10:00:00 3,3 -0,1 2,4 2,5 3,4 7,6 3,5 19 10 39 21 ZZO 1016,5 26 0 0,0
06.12.2018 09:00:00 3,3 -0,4 2,2 2,3 3,4 7,6 3,7 23 12 40 22 ZZO 1016,2 23 0 0,5
06.12.2018 08:00:00 3,5 -0,2 2,2 2,3 3,4 7,6 3,5 22 12 41 22 ZZO 1016,6 13 0 0,1
06.12.2018 07:00:00 3,8 -1,0 3,4 2,2 3,4 7,6 3,4 26 14 45 24 ZZO 1016,5 40 0 0,0
06.12.2018 06:00:00 3,7 -0,5 3,2 2,1 3,4 7,6 3,5 27 15 43 23 Z 1017,1 42 0 0,0
06.12.2018 05:00:00 3,4 -0,6 2,9 2,1 3,4 7,6 3,5 23 12 44 24 ZZO 1017,8 35 0 0,0
06.12.2018 04:00:00 3,3 -0,2 2,7 2,0 3,4 7,6 3,5 26 14 46 25 Z 1018,4 28 0 0,0
06.12.2018 03:00:00 3,1 0,1 2,5 1,9 3,4 7,6 3,5 26 14 41 22 Z 1019,1 28 0 0,0
06.12.2018 02:00:00 3,0 0,5 2,2 1,8 3,5 7,7 3,6 22 12 38 21 ZZO 1020,0 26 0 0,0
06.12.2018 01:00:00 3,3 0,7 2,1 1,8 3,5 7,7 3,7 23 12 40 22 Z 1020,9 30 0 0,0
06.12.2018 00:00:00 3,0 0,4 2,1 1,7 3,6 7,7 3,7 22 12 34 18 Z 1021,9 30 0 0,0
05.12.2018 23:00:00 3,3 0,9 2,0 1,7 3,7 7,7 3,6 21 12 34 18 Z 1022,7 30 0 0,0
05.12.2018 22:00:00 3,0 1,0 1,6 1,6 3,8 7,7 3,6 18 10 32 17 Z 1023,4 30 0 0,0
05.12.2018 21:00:00 3,2 1,0 1,7 1,8 3,9 7,7 3,7 18 10 31 17 Z 1023,6 33 0 0,0
05.12.2018 20:00:00 3,4 1,3 1,8 1,9 4,1 7,7 3,9 18 10 26 14 Z 1024,1 37 0 0,0
05.12.2018 19:00:00 3,8 1,4 2,4 2,1 4,2 7,7 4,4 20 11 27 14 ZZW 1024,5 36 0 0,0
05.12.2018 18:00:00 3,8 1,5 2,2 2,4 4,4 7,7 4,2 17 9 22 12 ZZW 1024,9 39 0 0,0
05.12.2018 17:00:00 4,2 1,7 2,4 2,8 4,5 7,7 4,2 16 9 22 12 ZZW 1024,9 44 0 0,0

tt = temperatuur
td = dauwpunt
tt 5cm = temperatuur 5cm
tt -5cm = temperatuur -5cm
tt -20cm = temperatuur -20cm
tt -100cm = temperatuur -100cm
tw = water temperatuur
ff = windsnelheid
fx = windstoten
dd = windrichting
ppp = luchtdruk
vv = zicht
sd = Zonneschijnduur
rr = neerslag

Weerstations in de omgeving